OneWeb SL0309

operational
NORAD ID: 49095 Int'l Des: 2021-075 Owner: ONEWEBN Country: UK Constellation: oneweb
LEOCIRCULARPOLARONEWEB_TYPE

About OneWeb SL0309

Description loading...

Live Position

Loading 3D Globe...

Upcoming Passes

Altitude History

Altitude vs Time

uPlot chart will show altitude changes over time

Two-Line Element Set

1 49095U 21075W 25304.29335961 .00000081 00000-0 17423-3 0 9993
2 49095 87.9132 51.3714 0002094 94.1236 266.0135 13.17649289203435
Epoch: Oct 31, 2025 • Age: 10 hours

Current Status

Altitude 1205.5 km
Velocity 7.26 km/s
Sub-Earth Point 78.85°N, 133.38°E
Launch Date Aug 21, 2021
Age 4.1 years
Type internet

Technical Details

Classification Payload
Mass 148.00 kg
Dry Mass 140.00 kg
Total Mass 148.00 kg
Length 1.30 m
Diameter 1.00 m
Span 5.00 m
Shape Trapezoid+2 pan
Manufacturer ONEWUS
Bus Type ARROW
Phase Status In Orbit
Owner/State ONEWEBN/UK

Large Constellations

Loading constellations...